スワン彗星

C/2011 Q4 ( SWAN )

English version
Home page
Updated on April 28, 2012

---------------------------------------------------------------------

・ プロフィール

発見日 2011年8月23日
発見光度
発見者 Vladimir Bezugly (Dnepropetrovsk, Ukraine), Robert D. Matson (Irvine, CA, U.S.A.)

・ 写真集

・ 軌道要素

Epoch 2011 Oct. 6.0 TT = JDT 2455840.5
T 2011 Sept. 21.08310 TT                                MPC
q   1.1122166            (2000.0)            P               Q
z  +0.0232503      Peri.    1.88048     -0.33385619     -0.79502168
 +/-0.0000021      Node   252.08607     -0.87163950     +0.05583254
e   0.9741406      Incl.  147.84291     -0.35886574     +0.60400600
From 156 observations 2011 Sept. 4-2012 Mar. 26, mean residual 0".5.

・ 星図

・ 光度変化

        m1 = 9.0 + 5 logΔ + 20.0 log r

---------------------------------------------------------------------

軌道要素はM.P.E.C. 2012-G18に掲載されたものです。
光度グラフはComet for Windowsで作成したものです。

---------------------------------------------------------------------

Copyright(C) Seiichi Yoshida (comet@aerith.net). All rights reserved.